Location: Poughquag
(41.6090°N, 73.6820°W)
Time: 09:51:56
(UTC-05:00)

SR - Pass Details

Date: 14 December 2023
Orbit: 574 x 868 km, 66.7° (Epoch: 25 February)

Event Time Altitude Azimuth Distance (km) Brightness Sun altitude
Rises 19:24:00 0° 313° (NW) 3,402 ? -32.5°
Reaches altitude 10° 19:27:29 10° 293° (WNW) 2,419 ? -33.2°
Maximum altitude 19:30:40 16° 257° (WSW) 1,995 ? -33.7°
Drops below altitude 10° 19:33:45 10° 222° (SW) 2,307 ? -34.3°
Sets 19:36:58 0° 200° (SSW) 3,164 ? -34.9°
